User: anonymous   Login
Location: ??
(35.5052°N, 139.7262°E)
Time: 03:55:21
(UTC+00:00)
Language:

NOSS 3-4 (A) - Orbit

View from above orbital plane
View from above orbital plane
View from above satellite
View from above satellite

Ground track
Ground track

The orbit data is extracted from the following two-line orbital elements,

1 31701U 07027A   21248.80725988 0.00000100  00000-0  13492-3 0    08
2 31701  63.3985 110.0211 0316431  19.7078 340.2922 13.40821381    07
Epoch (UTC): 05 September 2021 19:22:27
Eccentricity: 0.0316431
inclination: 63.3985°
perigee height: 869 km
apogee height: 1343 km
right ascension of ascending node: 110.0211°
argument of perigee: 19.7078°
revolutions per day: 13.40821381
mean anomaly at epoch: 340.2922°
orbit number at epoch: 0

The dashed part of the orbit path shows where the satellite is in the earth's shadow,  

DLR